Home   Weather   South Bend   Past weeks

Flag for USA Past Weather in South Bend, Indiana, USA — Yesterday and Last 2 Weeks

46 °F


Feels Like: 41 °F
Forecast: 43 / 49 °F
Wind: 9 mph from Northwest

Location: Michiana Regional Airport

Current Time: Oct 27, 2016 at 10:49:33 AM

Latest Report: Oct 27, 2016 at 9:54 AM

Visibility: 10 mi

Pressure: 30.15 "Hg

Humidity: 86%

Dew Point: 42 °F

Location of South BendLocation

Past Weather in South Bend — Graph


South Bend Temperature Yesterday

Maximum temperature yesterday: 48 °F (at 12:54 AM)
Minimum temperature yesterday: 42 °F (at 8:54 AM)
Average temperature yesterday: 45 °F

High & Low Weather Summary for the Past Weeks

High80 °F (Oct 17, 4:54 PM)100% (Oct 13, 12:54 AM)30.50 "Hg (Oct 13, 12:54 AM)
Low31 °F (Oct 25, 4:54 AM)45% (Oct 19, 2:54 PM)29.55 "Hg (Oct 17, 8:54 PM)
Average54 °F80%30.08 "Hg
* Reported Oct 12 8:54 AM — Oct 27 8:54 AM, South Bend, Weather by CustomWeather, © 2016

Note: Actual official high and low records may vary slightly from our data, if they occured in-between our weather recording intervals... More about our weather records


South Bend Weather History for the Previous 24 Hours

Scroll right to see more
Time TempWeatherWind HumidityBarometerVisibility
8:54 AM
Thu, Oct 27
45 °FOvercast.7 mph93%30.12 "Hg10 mi
7:54 AM45 °FMostly cloudy.13 mph93%30.09 "Hg10 mi
6:54 AM45 °FMostly cloudy.9 mph97%30.06 "Hg10 mi
5:54 AM44 °FMostly cloudy.10 mph100%30.04 "Hg10 mi
4:54 AM44 °FFog.10 mph100%30.00 "Hg5 mi
3:54 AM44 °FFog.No wind100%29.98 "Hg1 mi
2:54 AM44 °FFog.No wind100%29.98 "Hg2 mi
2:01 AM43 °FFog.7 mph100%29.97 "Hg2 mi
12:54 AM43 °FFog.7 mph100%29.99 "Hg2 mi
11:54 PM
Wed, Oct 26
43 °FFog.9 mph100%30.01 "Hg3 mi
10:54 PM43 °FLight rain. Fog.13 mph100%30.03 "Hg4 mi
9:54 PM43 °FLight rain. Mostly cloudy.15 mph100%30.04 "Hg8 mi
8:54 PM44 °FMostly cloudy.14 mph96%30.06 "Hg10 mi
7:54 PM44 °FRain. Fog.15 mph96%30.07 "Hg6 mi
6:54 PM44 °FRain. Fog.13 mph96%30.07 "Hg6 mi
5:54 PM45 °FMostly cloudy.17 mph90%30.08 "Hg10 mi
4:54 PM45 °FLight rain. Mostly cloudy.20 mph93%30.07 "Hg9 mi
3:54 PM46 °FRain. Mostly cloudy.17 mph89%30.12 "Hg7 mi
2:54 PM45 °FLight rain. Overcast.18 mph86%30.14 "Hg9 mi
1:54 PM46 °FLight rain. Mostly cloudy.20 mph73%30.23 "Hg10 mi
12:54 PM45 °FMostly cloudy.23 mph82%30.23 "Hg10 mi
11:54 AM44 °FOvercast.23 mph85%30.25 "Hg10 mi
10:54 AM43 °FMore clouds than sun.17 mph89%30.28 "Hg10 mi
Weather by CustomWeather, © 2016

See weather overviewHow to use our weather pages